This is the latest recevied weather packets stored in our database for station/object KF7SOJ. If no packets are shown the sender has not sent any weather packets the latest 10 day(s).
| Time | Temp. | Humidity | Pressure | Rain* | Wind** | Luminosity | Snow |
|---|---|---|---|---|---|---|---|
| 1788388700 | 30.56° C | 21% | 922.3 hPa | 0 mm | - | 196 W/m² | - |
| 1788388399 | 30.56° C | 21% | 922.5 hPa | 0 mm | - | 191 W/m² | - |
| 1788388094 | 30.56° C | 20% | 922.2 hPa | 0 mm | - | 224 W/m² | - |
| 1788387792 | 31.11° C | 20% | 922.6 hPa | 0 mm | - | 233 W/m² | - |
| 1788387486 | 31.11° C | 19% | 922.4 hPa | 0 mm | - | 273 W/m² | - |
| 1788387186 | 31.11° C | 19% | 922.5 hPa | 0 mm | - | 268 W/m² | - |
| 1788386881 | 31.11° C | 20% | 922.7 hPa | 0 mm | - | 493 W/m² | - |
| 1788386581 | 31.67° C | 19% | 922.5 hPa | 0 mm | - | 349 W/m² | - |
| 1788386276 | 31.67° C | 18% | 922.6 hPa | 0 mm | - | 408 W/m² | - |
| 1788385972 | 31.67° C | 20% | 922.7 hPa | 0 mm | - | 557 W/m² | - |
| 1788385668 | 31.67° C | 19% | 922.7 hPa | 0 mm | - | 661 W/m² | - |
| 1788385366 | 31.67° C | 20% | 922.8 hPa | 0 mm | - | 656 W/m² | - |
| 1788385062 | 31.67° C | 20% | 922.8 hPa | 0 mm | - | 719 W/m² | - |
| 1788384762 | 31.67° C | 21% | 923 hPa | 0 mm | - | 690 W/m² | - |
| 1788384461 | 31.67° C | 20% | 923 hPa | 0 mm | - | 673 W/m² | - |
| 1788384158 | 31.67° C | 20% | 923.4 hPa | 0 mm | - | 729 W/m² | - |
| 1788383854 | 31.67° C | 21% | 923.2 hPa | 0 mm | - | 753 W/m² | - |
| 1788383550 | 31.67° C | 21% | 923.5 hPa | 0 mm | - | 765 W/m² | - |
| 1788383249 | 31.67° C | 19% | 923.5 hPa | 0 mm | - | 744 W/m² | - |
| 1788382945 | 31.11° C | 19% | 923.6 hPa | 0 mm | - | 892 W/m² | - |
| 1788382642 | 30° C | 20% | 923.5 hPa | 0 mm | - | 545 W/m² | - |
| 1788382338 | 30° C | 21% | 923.6 hPa | 0 mm | - | 289 W/m² | - |
| 1788382033 | 30° C | 21% | 923.6 hPa | 0 mm | - | 235 W/m² | - |
| 1788381728 | 30° C | 24% | 923.8 hPa | 0 mm | - | 262 W/m² | - |
| 1788381423 | 30° C | 26% | 923.6 hPa | 0 mm | - | 290 W/m² | - |
* Rain latest hour (hover to see other rain measurements)
** Current wind speed in m/s (hover to see current wind gust speed)